Location: Gälforsberget
(66.6500°N, 22.4167°E)
Time: 21:46:54
(UTC+00:00)

Cosmos 2237 Rocket - Pass Details

Date: 11 April 2026
Orbit: 833 x 850 km, 71.0° (Epoch: 13 May)

Event Time Altitude Azimuth Distance (km) Brightness Sun altitude
Exits shadow 20:47:18 - 196° (SSW) 2,712 4.4 -12.4°
Reaches altitude 10° 20:47:57 10° 195° (SSW) 2,473 4.2 -12.5°
Maximum altitude 20:53:21 46° 123° (ESE) 1,131 2.5 -12.7°
Drops below altitude 10° 20:58:46 10° 52° (NE) 2,490 4.8 -12.9°
Sets 21:01:19 0° 47° (NE) 3,430 5.6 -13.0°
